FW2265 Weather Reports


Display with metric or nautical units.
time (UTC)temp
F
wind
direction
speed
MPH
gust
MPH
rain 1hr
in
rain 24hr
in
rain mn
in
humidity
%
barometer
mb
20260508040547 74 67 0.0 0.0 0.00 0.00 0.00 77 1014.7
20260508035546 75 67 0.0 0.0 0.00 0.00 0.00 76 1014.8
20260508034546 75 52 0.0 1.0 0.00 0.00 0.00 76 1014.9
20260508034447 75 67 0.0 0.0 0.00 0.00 0.00 76 1014.8
20260508032445 75 337 0.0 1.0 0.00 0.00 0.00 75 1014.8
20260508031447 75 53 0.0 0.0 0.00 0.00 0.00 74 1014.7
20260508030448 75 4 1.0 4.0 0.00 0.00 0.00 75 1014.4
20260508024547 75 41 0.0 0.0 0.00 0.00 0.00 73 1014.8
20260508022745 76 22 0.0 0.0 0.00 0.00 0.00 72 1014.4
20260508021746 76 47 0.0 2.0 0.00 0.00 0.00 72 1014.6
20260508020746 76 67 0.0 0.0 0.00 0.00 0.00 72 1014.2
20260508015845 76 37 0.0 1.0 0.00 0.00 0.00 72 1014.3
20260508014744 76 45 0.0 0.0 0.00 0.00 0.00 72 1014.5
20260508013747 76 67 0.0 0.0 0.00 0.00 0.00 73 1014.6
20260508012746 76 67 0.0 0.0 0.00 0.00 0.00 72 1014.4
20260508011845 76 30 1.0 2.0 0.00 0.00 0.00 73 1014.3
20260508010848 76 90 0.0 0.0 0.00 0.00 0.00 74 1014.1
20260508004745 76 54 0.0 2.0 0.00 0.00 0.00 75 1014.0
20260508003745 76 59 0.0 0.0 0.00 0.00 0.00 74 1014.0
20260508002746 76 64 0.0 2.0 0.00 0.00 0.00 73 1014.0
20260508001746 76 90 0.0 0.0 0.00 0.00 0.00 74 1014.1
20260508000745 77 112 0.0 0.0 0.00 0.00 0.00 74 1013.9
20260507235746 77 67 0.0 0.0 0.00 0.00 0.00 74 1014.0
20260507234747 77 44 0.0 3.0 0.00 0.00 0.00 73 1013.7
20260507233845 77 93 0.0 0.0 0.00 0.00 0.00 73 1013.8
20260507231847 78 102 0.0 0.0 0.00 0.00 0.00 71 1013.7
20260507230847 78 56 0.0 1.0 0.00 0.00 0.00 72 1013.8
20260507225846 78 95 0.0 0.0 0.00 0.00 0.00 71 1013.8
20260507224747 78 67 0.0 0.0 0.00 0.00 0.00 71 1013.8
20260507222844 79 245 0.0 0.0 0.00 0.00 0.00 70 1013.5
20260507221846 79 360 1.0 2.0 0.00 0.00 0.00 70 1013.7
20260507220846 79 99 0.0 4.0 0.00 0.00 0.00 70 1013.8
20260507220747 79 134 0.0 0.0 0.00 0.00 0.00 69 1013.8
20260507215744 79 7 1.0 3.0 0.00 0.00 0.00 70 1013.7
20260507214744 78 54 0.0 1.0 0.00 0.00 0.00 69 1013.8
20260507211745 79 46 0.0 2.0 0.00 0.00 0.00 67 1013.9
20260507210745 79 178 0.0 0.0 0.00 0.00 0.00 67 1014.0
20260507205745 78 68 0.0 1.0 0.00 0.00 0.00 68 1014.3
20260507204746 77 300 0.0 1.0 0.00 0.00 0.00 70 1014.5
20260507203749 76 73 0.0 1.0 0.00 0.00 0.00 70 1014.5
20260507202845 76 247 0.0 0.0 0.00 0.00 0.00 72 1014.6
20260507201845 76 90 0.0 0.0 0.00 0.00 0.00 72 1014.8
20260507200845 76 128 0.0 0.0 0.00 0.00 0.00 72 1015.1
20260507195846 76 121 0.0 0.0 0.00 0.00 0.00 71 1015.1
20260507195747 76 118 0.0 0.0 0.00 0.00 0.00 72 1015.0
20260507194844 75 67 0.0 0.0 0.00 0.00 0.00 72 1015.2
20260507191946 75 71 0.0 1.0 0.00 0.00 0.00 72 1015.5
20260507190946 75 67 0.0 0.0 0.00 0.00 0.00 72 1015.6
20260507185945 74 57 0.0 2.0 0.00 0.00 0.00 72 1015.5
20260507184945 73 30 1.0 4.0 0.00 0.00 0.00 74 1015.7
20260507182946 71 74 0.0 0.0 0.00 0.00 0.00 76 1015.9
20260507182044 70 183 0.0 3.0 0.00 0.00 0.00 77 1015.9
20260507181046 70 47 1.0 4.0 0.00 0.00 0.00 78 1016.2
20260507180145 69 54 0.0 2.0 0.00 0.00 0.00 79 1016.2
20260507175244 68 88 0.0 2.0 0.00 0.00 0.00 79 1016.4
20260507174247 68 96 0.0 4.0 0.00 0.00 0.00 79 1016.5
20260507173247 69 92 0.0 3.0 0.00 0.00 0.00 78 1016.6
20260507173145 69 61 1.0 4.0 0.00 0.00 0.00 77 1016.6
20260507171146 68 174 0.0 0.0 0.00 0.00 0.00 79 1016.7
20260507170244 67 104 0.0 0.0 0.00 0.00 0.00 79 1016.8
20260507165247 67 135 0.0 0.0 0.00 0.00 0.00 81 1016.5
20260507164345 66 169 0.0 0.0 0.00 0.00 0.00 82 1016.4
20260507163345 65 157 0.0 2.0 0.00 0.00 0.00 83 1016.8
20260507162346 65 115 0.0 1.0 0.00 0.00 0.00 83 1016.7
20260507161445 65 44 1.0 4.0 0.00 0.00 0.00 84 1016.8
20260507160447 64 112 0.0 0.0 0.00 0.00 0.00 84 1016.6
20260507160346 64 112 0.0 0.0 0.00 0.00 0.00 84 1016.4
20260507155347 65 60 0.0 2.0 0.00 0.00 0.00 85 1016.7
20260507155245 65 73 0.0 1.0 0.00 0.00 0.00 85 1016.8
20260507154244 64 104 0.0 0.0 0.00 0.00 0.00 85 1016.9
20260507153245 64 9 1.0 3.0 0.00 0.00 0.00 85 1016.9
20260507152246 64 90 0.0 2.0 0.00 0.00 0.00 85 1016.7
20260507151346 64 171 0.0 2.0 0.00 0.00 0.00 84 1016.8
20260507151245 64 77 0.0 3.0 0.00 0.00 0.00 83 1016.7
20260507150345 64 44 1.0 3.0 0.00 0.00 0.00 84 1016.5
20260507145347 64 38 2.0 7.0 0.00 0.00 0.00 84 1016.6
20260507144346 65 67 0.0 0.0 0.00 0.00 0.00 83 1016.6
20260507143347 65 11 0.0 3.0 0.00 0.00 0.00 83 1016.4
20260507142347 66 46 0.0 2.0 0.00 0.00 0.00 83 1016.5
20260507141346 66 359 0.0 2.0 0.00 0.00 0.00 84 1016.0
20260507140444 65 47 2.0 5.0 0.00 0.00 0.00 85 1016.1
20260507135544 65 85 0.0 0.0 0.00 0.00 0.00 85 1016.3
20260507131645 66 91 0.0 3.0 0.00 0.00 0.00 85 1016.5
20260507130745 66 99 0.0 0.0 0.00 0.00 0.00 85 1016.2
20260507125744 66 49 1.0 3.0 0.00 0.00 0.00 85 1016.2
20260507125646 66 3 0.0 1.0 0.00 0.00 0.00 85 1016.2
20260507124745 66 170 0.0 1.0 0.00 0.00 0.00 84 1015.7
20260507123747 66 49 0.0 2.0 0.00 0.00 0.00 85 1015.4
20260507122844 66 74 0.0 1.0 0.00 0.00 0.00 84 1015.5
20260507115847 67 135 0.0 0.0 0.00 0.00 0.00 85 1015.0
20260507114945 67 28 1.0 2.0 0.00 0.00 0.00 85 1014.9
20260507114044 67 40 1.0 2.0 0.00 0.00 0.00 86 1014.6
20260507113044 67 45 0.0 0.0 0.00 0.00 0.00 85 1014.3
20260507111145 68 124 0.0 1.0 0.00 0.00 0.00 85 1014.4
20260507110146 68 67 0.0 0.0 0.00 0.00 0.00 86 1014.4
20260507105244 68 54 0.0 3.0 0.00 0.00 0.00 86 1014.2
20260507104247 68 20 1.0 3.0 0.00 0.00 0.00 86 1014.0
20260507104145 68 74 0.0 3.0 0.00 0.00 0.00 86 1014.1
20260507102245 68 34 0.0 1.0 0.00 0.00 0.00 86 1013.8
20260507101247 68 26 0.0 1.0 0.00 0.00 0.00 85 1013.7
20260507100245 68 45 0.0 3.0 0.00 0.00 0.00 86 1013.4
20260507095245 69 48 0.0 3.0 0.00 0.00 0.00 85 1013.6
20260507094246 69 135 0.0 0.0 0.00 0.00 0.00 84 1013.6
20260507093247 69 47 0.0 1.0 0.00 0.00 0.00 85 1013.4
20260507091344 70 54 0.0 3.0 0.00 0.00 0.00 85 1013.4
20260507090345 70 109 0.0 0.0 0.00 0.00 0.00 84 1013.3
20260507085346 70 31 2.0 4.0 0.00 0.00 0.00 83 1013.3
20260507084346 70 43 1.0 3.0 0.00 0.00 0.00 84 1013.1
20260507083445 71 39 1.0 3.0 0.00 0.00 0.00 84 1013.0
20260507082446 71 55 1.0 4.0 0.00 0.00 0.00 84 1013.0
20260507081445 71 87 0.0 0.0 0.00 0.00 0.00 83 1013.1
20260507080446 71 62 0.0 3.0 0.00 0.00 0.00 84 1013.1
20260507075445 71 48 0.0 1.0 0.00 0.00 0.00 85 1013.1
20260507074544 72 63 2.0 6.0 0.00 0.00 0.00 84 1013.2
20260507072546 72 149 0.0 1.0 0.00 0.00 0.00 83 1013.3
20260507065648 72 128 0.0 0.0 0.00 0.00 0.00 84 1013.3
20260507064647 73 54 0.0 2.0 0.00 0.00 0.00 84 1013.2
20260507063645 73 81 0.0 1.0 0.00 0.00 0.00 84 1013.2
20260507062647 73 211 0.0 1.0 0.00 0.00 0.00 83 1013.3
20260507061745 73 53 1.0 3.0 0.00 0.00 0.00 84 1013.3
20260507060746 74 77 0.0 1.0 0.00 0.00 0.00 83 1013.1
20260507055744 74 8 0.0 2.0 0.00 0.00 0.00 83 1012.8
20260507053746 74 64 0.0 2.0 0.00 0.00 0.00 86 1012.9
20260507052845 74 142 0.0 0.0 0.00 0.00 0.00 86 1013.1
20260507050946 75 202 0.0 0.0 0.00 0.00 0.00 86 1012.9
20260507050023 75 157 0.0 0.0 0.00 0.00 0.00 86 1012.8
20260507045123 75 205 0.0 0.0 0.00 0.00 0.00 86 1013.0
20260507043124 76 180 0.0 0.0 0.00 0.00 0.00 85 1013.1
20260507042125 77 184 0.0 1.0 0.00 0.00 0.00 85 1013.0